Zurück zum Katalog

STARLINK-11112

AktivKommunikationVLEO
NORAD 60115·PAYLOAD·🇺🇸 United States

Gestartet Jun 24, 2024 von Vandenberg Space Force Base

Loading…

Nächste Überflüge (nächste 24 Stunden)

TLE

AktuellSource: CelesTrak SupGP

Epoche: Sep 14, 2026, 21:26 UTC

1 60115C 24118C   26257.89354167  .00015025  00000+0  12366-3 0  2574
2 60115  53.1569   8.7576 0001117  73.4386  55.0203 15.69722481    19

Verfolge STARLINK-11112 in Echtzeit mit AllMySat

Download on the App Store